Regional Weather Roundup
Issued by NWS Sioux Falls, SD

Home | Current Version | Previous Version | Text Only | Print | Product List | Glossary On
Versions: 1 2 3 4 5 6 7 8 9 10 11 12 13 14 15 16 17 18 19 20 21 22 23 24 25 26 27 28 29 30 31 32 33 34 35 36 37 38 39 40 41 42 43 44 45 46 47 48 49 50
000
ASUS43 KFSD 102102
RWRFSD

WEATHER ROUNDUP FOR SE SOUTH DAKOTA/SW MINNESOTA/NW IOWA
NATIONAL WEATHER SERVICE SIOUX FALLS SD
300 PM CST WED FEB 10 2016

NOTE: "FAIR" INDICATES FEW OR NO CLOUDS BELOW 12,000 FEET WITH NO
SIGNIFICANT WEATHER AND OR OBSTRUCTIONS TO VISIBILITY.


SDZ038>040-050-052>070-102200-
SOUTHEAST SOUTH DAKOTA

CITY           SKY/WX    TMP DP  RH WIND       PRES   REMARKS
BROOKINGS      CLOUDY    13   8  81 E12       29.97R WCI  -1
CHAMBERLAIN    NOT AVBL
HURON          CLOUDY    24  16  71 E13       29.98R WCI  12
MADISON        CLOUDY    14  14 100 E17       29.95R WCI  -3
MITCHELL       MOSUNNY   30  22  72 SE14      29.94R WCI  19
SIOUX FALLS    CLOUDY    17  12  80 E15       29.97R WCI   2
WINNER         FAIR      50  30  46 N18       29.87R
YANKTON        SUNNY     27  19  74 E17       29.93R WCI  14
$$

MNZ071-072-080-081-089-090-097-098-102200-
SOUTHWEST MINNESOTA

CITY           SKY/WX    TMP DP  RH WIND       PRES   REMARKS
FAIRMONT       CLOUDY    10   3  72 E7        30.05S WCI   0
JACKSON        CLOUDY    12   5  73 E12       30.02S WCI  -2
LUVERNE        CLOUDY    18  12  79 E13       29.99R HAZE    WCI   4
MARSHALL       FLURRIES  11   5  77 SE10      30.07R WCI  -3
MONTEVIDEO     FLURRIES  14   7  73 SE6       30.11R WCI   5
PIPESTONE      CLOUDY    16   7  67 E12       29.96S WCI   3
REDWOOD FALLS  CLOUDY    14   2  58 E8        30.08R WCI   3
TRACY          CLOUDY    12   7  79 E8        30.05R WCI   0
WINDOM         CLOUDY    10   3  72 E9        30.03R WCI  -2
WORTHINGTON    CLOUDY    10   5  79 E14       30.01R WCI  -5
$$

IAZ001>003-012>014-020>022-031-032-NEZ013-014-SDZ071-102200-
NORTHWEST IOWA

CITY           SKY/WX    TMP DP  RH WIND       PRES   REMARKS
ESTHERVILLE    CLOUDY    11   6  81 E13       30.03R WCI  -4
SIOUX CITY     PTSUNNY   26  19  74 E15       29.95R WCI  14
SPENCER        CLOUDY    14   8  77 E12       30.01S WCI   0
STORM LAKE     CLOUDY    16  14  93 E16       29.98S WCI   0
$$

ABBREVIATIONS USED IN REMARKS
   TC - TEMPERATURE IN CELSIUS
  WCI - WIND CHILL INDEX
   HX - HEAT INDEX
  VSB - VISIBILITY




USA.gov is the U.S. government's official web portal to all federal, state and local government web resources and services.